www.pogodaiklimat.ru

ПОГОДА в Дэнвилле, KY

  • Прогноз погоды в Дэнвилле
  • Монитор погоды в Дэнвилле
  • Климат в Дэнвилле

АРХИВ ПОГОДЫ в Дэнвилле

Время (UTC), дата Ветер
(напр.,м/с)
 
Видим.   Явления Облачность Т
(С)
Тd
(С)
f
(%)
Тe
(С)
Тes
(С)
Комфортность

P
(гПа)

Po
(гПа)
Тmin
(С)
Tmax
(С)
R
(мм)
SD
(см)
17:35 23.05 З  6
{9} 
16 км    ясно  +31.0  +20.0  52  +37  +43  очень
душно 
  984.6         
17:55 23.05 ЮЗ  4
{9} 
16 км    ясно  +29.0  +19.0  55  +34  +46  очень
душно 
  984.6         
18:15 23.05 ЮЗ  16 км    ясно  +30.0  +20.0  55  +36  +46  очень
душно 
  984.3         
18:35 23.05 ЮЗ  4
{7} 
16 км    ясно  +30.0  +20.0  55  +36  +47  очень
душно 
  984.0         
18:55 23.05 ЮЗ  6
{8} 
16 км    5/5 1200 м  +30.0  +20.0  55  +36  +39  очень
душно 
  983.7         
19:15 23.05 ЮЗ  16 км    8/8 1260 м  +31.0  +20.0  52  +37  +39  очень
душно 
  983.7         
19:35 23.05 ЮЗ  16 км    5/5 1320 м  +32.0  +20.0  49  +38  +42  очень
душно 
  983.7         
19:55 23.05 ЮЗ  16 км    8/8 1320 м  +30.0  +19.0  52  +35  +37  очень
душно 
  983.3         
20:15 23.05 ЮЗ  6
{8} 
16 км    5/5 1500 м
[средняя] 
+31.0  +19.0  49  +36  +38  очень
душно 
  983.3         
20:35 23.05 ЮЗ  5
{7} 
16 км    ясно  +30.0  +18.0  49  +35  +39  очень
душно 
  983.0         
20:55 23.05 ЮЗ  16 км    ясно  +31.0  +19.0  49  +36  +43  очень
душно 
  983.0         
21:15 23.05 ЮЗ  4
{8} 
16 км    ясно  +30.0  +19.0  52  +35  +39  очень
душно 
  983.0         
21:35 23.05 ЮЗ  4
{8} 
16 км    ясно  +31.0  +19.0  49  +36  +40  очень
душно 
  983.0         
21:55 23.05 ЮЗ  16 км    ясно  +30.0  +18.0  49  +35  +38  очень
душно 
  982.7         
22:15 23.05 ЮЗ  16 км    ясно  +28.0  +18.0  55  +33  +34  очень
душно 
  983.0         
22:35 23.05 ЮЗ  16 км    ясно  +28.0  +19.0  58  +33  +36  очень
душно 
  982.7         
22:55 23.05 ЮЗ  16 км    ясно  +27.0  +18.0  58  +32  +34  очень
душно 
  982.7         
23:15 23.05 ЮЗ  16 км    ясно  +27.0  +18.0  58  +32  +32  очень
душно 
  982.7         
23:35 23.05 ЮЗ  16 км    ясно  +26.0  +18.0  61  +30  +31  душно    982.7         
23:55 23.05 ЮЗ  16 км    ясно  +26.0  +17.0  58  +30  +30  душно    982.7         
00:15 24.05 ЮЗ  16 км    ясно  +26.0  +17.0  58  +30  +30  душно    982.7         
00:35 24.05 З  16 км    ясно  +25.0  +17.0  61  +29  +29  душно    983.0         
00:55 24.05 З  16 км    ясно  +25.0  +17.0  61  +29  +29  душно    983.7         
01:15 24.05 З  16 км    ясно  +25.0  +17.0  61  +29  +29  душно    983.7         
01:35 24.05 З  16 км    ясно  +24.0  +16.0  61  +27  +27  жарко    983.7         
01:55 24.05 ЮЗ  16 км    ясно  +24.0  +16.0  61  +27  +27  жарко    983.7         
02:15 24.05   16 км    ясно  +23.0  +16.0  65  +27  +27  душно    983.7         
02:35 24.05 З  16 км    ясно  +23.0  +17.0  69  +28  +28  душно    983.7         
02:55 24.05 З  16 км    ясно  +23.0  +17.0  69  +28  +28  душно    984.0         
03:15 24.05 З  16 км    ясно  +23.0  +17.0  69  +28  +28  душно    983.7         
03:35 24.05 З  16 км    ясно  +23.0  +17.0  69  +28  +28  душно    983.7         
03:55 24.05 ЮЗ  16 км    ясно  +23.0  +17.0  69  +28  +28  душно    983.7         
04:15 24.05   16 км    ясно  +22.0  +17.0  73  +26  +26  душно    983.7         
04:35 24.05 Ю  16 км    ясно  +21.0  +17.0  78  +26  +26  душно    983.7         
04:55 24.05 Ю  16 км    ясно  +21.0  +17.0  78  +25  +25  комфорт    983.3         
05:15 24.05 ЮЗ  16 км    ясно  +20.0  +17.0  83  +23  +23  комфорт    983.3         
05:35 24.05 ЮЗ  16 км    ясно  +20.0  +17.0  83  +24  +24  комфорт    983.3         
05:55 24.05 Ю  16 км    ясно  +20.0  +17.0  83  +23  +23  комфорт    983.0         
06:15 24.05 Ю  16 км    ясно  +20.0  +17.0  83  +23  +23  комфорт    983.0         
06:35 24.05 Ю  16 км    ясно  +20.0  +17.0  83  +24  +24  комфорт    983.0         
06:55 24.05 Ю  16 км    ясно  +19.0  +17.0  88  +21  +21  комфорт    983.0         
07:15 24.05 Ю  16 км    ясно  +20.0  +17.0  83  +23  +23  комфорт    983.0         
07:35 24.05 Ю  16 км    ясно  +19.0  +17.0  88  +21  +21  комфорт    983.3         
07:55 24.05 Ю  16 км    ясно  +19.0  +17.0  88  +21  +21  комфорт    983.3         
08:15 24.05 Ю  16 км    ясно  +19.0  +17.0  88  +21  +21  комфорт    983.3         
08:35 24.05 Ю  16 км    ясно  +19.0  +17.0  88  +21  +21  комфорт    983.7         
08:55 24.05 Ю  16 км    ясно  +19.0  +17.0  88  +21  +21  комфорт    983.7         
09:15 24.05 Ю  16 км    5/0 2400 м
[средняя] 
+19.0  +17.0  88  +21  +21  комфорт    983.7         

 

Местоположение метеостанции Stuart Powell Field Airport: широта 37.5776 долгота -84.7695 высота над уровнем моря 312 м.

В архиве по умолчанию представлена погода в Дэнвилле за последние 1-2 суток. Обновление информации о фактической погоде в базе происходит ежечасно! Архивные данные за месяц целиком и за предыдущие месяцы Вы можете получить, выбрав интересующий диапазон дат из раскрывающегося списка и нажав кнопку "Ввод!".

Внимание! Архив погоды МЕТАР в базе сайта хранится не более 60 дней. Нет смысла пытаться выбрать более раннюю дату.

Внимание! Время в таблицах - всемирное. Для получения местного времени необходимо прибавить поправку, которая в Дэнвилле равна -5 ч.

Ветер - указаны скорость ветра в м/с и направление, откуда дует ветер: С - северный, СВ - северо-восточный, В - восточный, ЮВ - юго-восточный, Ю - южный, ЮЗ - юго-западный, З - западный, СЗ - северо-западный.
Видимость - горизонтальная дальность видимости в метрах или километрах. При видимости от 1 до 10 км при отсутствии осадков обычно наблюдается дымка, при ухудшении видимости до 1 км и менее - туман. В сухую погоду видимость может ухудшаться дымом, пылью или мглою.
Атмосферные явления - указаны явления, наблюдавшиеся в указанный момент времени.
Облачность - указаны через наклонную черту верхняя и нижняя облачность в баллах и высота нижней границы облаков в метрах. Внимание: облачность, как и прочие метеорологические величины в США измеряются автоматическими метеостанциями. Указанные значения в баллах носят условный характер и показывают процент времени, в течение которого, в среднем, лазерный луч высотомера отражался от облаков обратно.
T - Температура воздуха - температура, измеренная на высоте 2 м над землей.
Td - Температура точки росы - температура, при понижении до которой содержащийся в воздухе водяной пар достигнет насыщения.
f - Относительная влажность воздуха - влажноcть воздуха, измеренная на высоте 2 м над землей.
Te - Эффективная температура - температура, которую ощущает одетый по сезону человек в тени. Характеристика душности погоды. При расчете учитывается влияние влажности воздуха и скорости ветра на теплоощущения человека.
Tes - Эффективная температура на солнце - температура, которую ощущает человек, с поправкой на солнечный нагрев. Характеристика знойности погоды. Зависит от высоты солнца над горизонтом, облачности и скорости ветра. Ночью, в пасмурную погоду, а также при ветре 12 м/с и более поправка равна нулю.
P - Атмосферное давление - приведенное к уровню моря атмосферное давление.
Po - Атмосферное давление - измеренное на уровне метеостанции атмосферное давление.
Tmin - Минимальная температура - минимум температуры воздуха на высоте 2 м над землей.
Tmax - Максимальная температура - максимум температуры воздуха на высоте 2 м над землей.
R - Количество осадков - Количество выпавших осадков за 3 или 6 часов, мм.
SD - Снежный покров - Высота снежного покрова, см.